Time,TemperatureF,DewpointF,PressureIn,WindDirection,WindDirectionDegrees,WindSpeedMPH,WindSpeedGustMPH,Humidity,HourlyPrecipIn,Conditions,Clouds,dailyrainin,SolarRadiationWatts/m^2,SoftwareType,DateUTC
2013-01-07 00:00:00,44.3,41.6,30.21,SSW,213,0.0,0.0,90,0.00,,,0.00,0,Wunderground v.1.15,2013-01-07 08:00:00,
2013-01-07 00:10:00,44.5,41.7,30.20,SSW,213,0.0,0.0,90,0.00,,,0.00,0,Wunderground v.1.15,2013-01-07 08:10:00,
2013-01-07 00:21:00,44.5,41.7,30.20,SW,214,0.0,0.0,90,0.00,,,0.00,0,Wunderground v.1.15,2013-01-07 08:21:00,
2013-01-07 00:30:00,44.4,41.7,30.20,SW,214,0.0,0.0,90,0.00,,,0.00,0,Wunderground v.1.15,2013-01-07 08:30:00,
2013-01-07 00:40:00,44.3,41.6,30.20,SW,214,0.0,0.0,90,0.00,,,0.00,0,Wunderground v.1.15,2013-01-07 08:40:00,
2013-01-07 00:50:00,44.2,41.5,30.20,SW,214,0.0,0.0,90,0.00,,,0.00,0,Wunderground v.1.15,2013-01-07 08:50:00,
2013-01-07 01:00:00,44.1,41.4,30.20,SW,214,0.0,0.0,90,0.00,,,0.00,0,Wunderground v.1.15,2013-01-07 09:00:00,
2013-01-07 01:10:00,44.0,41.5,30.20,SW,214,0.0,0.0,91,0.00,,,0.00,0,Wunderground v.1.15,2013-01-07 09:10:00,
2013-01-07 01:20:00,44.1,41.6,30.20,West,260,0.0,0.0,91,0.00,,,0.00,0,Wunderground v.1.15,2013-01-07 09:20:00,
2013-01-07 01:30:00,44.0,41.5,30.21,WNW,286,1.0,3.0,91,0.00,,,0.00,0,Wunderground v.1.15,2013-01-07 09:30:00,
2013-01-07 01:40:00,43.8,41.3,30.20,NNW,348,3.0,3.0,91,0.00,,,0.00,0,Wunderground v.1.15,2013-01-07 09:40:00,
2013-01-07 01:51:00,43.7,41.5,30.20,North,351,2.0,2.0,92,0.00,,,0.00,0,Wunderground v.1.15,2013-01-07 09:51:00,
2013-01-07 02:00:00,43.7,41.5,30.20,North,9,1.0,4.0,92,0.00,,,0.00,0,Wunderground v.1.15,2013-01-07 10:00:00,
2013-01-07 02:10:00,43.6,41.7,30.20,North,355,2.0,2.0,93,0.00,,,0.00,0,Wunderground v.1.15,2013-01-07 10:10:00,
2013-01-07 02:20:00,43.6,41.7,30.20,North,355,1.0,1.0,93,0.00,,,0.00,0,Wunderground v.1.15,2013-01-07 10:20:00,
2013-01-07 02:30:00,43.5,41.6,30.20,North,355,0.0,0.0,93,0.00,,,0.00,0,Wunderground v.1.15,2013-01-07 10:30:00,
2013-01-07 02:41:00,43.4,41.5,30.21,North,355,0.0,0.0,93,0.00,,,0.00,0,Wunderground v.1.15,2013-01-07 10:41:00,
2013-01-07 02:50:00,43.3,41.4,30.22,North,355,0.0,0.0,93,0.00,,,0.00,0,Wunderground v.1.15,2013-01-07 10:50:00,
2013-01-07 03:00:00,43.1,41.2,30.22,North,355,0.0,0.0,93,0.00,,,0.00,0,Wunderground v.1.15,2013-01-07 11:00:00,
2013-01-07 03:10:00,43.0,41.1,30.22,North,355,0.0,0.0,93,0.00,,,0.00,0,Wunderground v.1.15,2013-01-07 11:10:00,
2013-01-07 03:20:00,42.9,41.0,30.22,NNW,346,0.0,0.0,93,0.00,,,0.00,0,Wunderground v.1.15,2013-01-07 11:20:00,
2013-01-07 03:30:00,42.8,41.2,30.22,NNW,331,1.0,4.0,94,0.00,,,0.00,0,Wunderground v.1.15,2013-01-07 11:30:00,
2013-01-07 03:40:00,42.7,41.1,30.22,West,269,4.0,5.0,94,0.00,,,0.00,0,Wunderground v.1.15,2013-01-07 11:40:00,
2013-01-07 03:50:00,42.6,41.0,30.22,West,271,6.0,6.0,94,0.00,,,0.00,0,Wunderground v.1.15,2013-01-07 11:50:00,
2013-01-07 04:00:00,42.6,41.0,30.22,WNW,296,7.0,7.0,94,0.00,,,0.00,0,Wunderground v.1.15,2013-01-07 12:00:00,
2013-01-07 04:10:00,42.5,40.9,30.21,WNW,292,7.0,7.0,94,0.00,,,0.00,0,Wunderground v.1.15,2013-01-07 12:10:00,
2013-01-07 04:21:00,42.4,40.8,30.21,NW,316,8.0,8.0,94,0.00,,,0.00,0,Wunderground v.1.15,2013-01-07 12:21:00,
2013-01-07 04:30:00,42.3,40.7,30.22,WNW,292,6.0,6.0,94,0.00,,,0.00,0,Wunderground v.1.15,2013-01-07 12:30:00,
2013-01-07 04:40:00,42.0,40.4,30.22,NW,305,4.0,5.0,94,0.00,,,0.00,0,Wunderground v.1.15,2013-01-07 12:40:00,
2013-01-07 04:50:00,41.9,40.3,30.23,NNW,330,6.0,6.0,94,0.00,,,0.00,0,Wunderground v.1.15,2013-01-07 12:50:00,
2013-01-07 05:00:00,42.3,40.7,30.22,NNW,328,6.0,6.0,94,0.00,,,0.00,0,Wunderground v.1.15,2013-01-07 13:00:00,
2013-01-07 05:10:00,42.5,40.6,30.21,NNE,15,5.0,5.0,93,0.00,,,0.00,0,Wunderground v.1.15,2013-01-07 13:10:00,
2013-01-07 05:20:00,42.6,40.4,30.21,NNE,28,4.0,4.0,92,0.00,,,0.00,0,Wunderground v.1.15,2013-01-07 13:20:00,
2013-01-07 05:30:00,42.7,40.3,30.21,North,11,4.0,4.0,91,0.00,,,0.00,0,Wunderground v.1.15,2013-01-07 13:30:00,
2013-01-07 05:40:00,42.9,40.5,30.21,NW,316,3.0,3.0,91,0.00,,,0.00,0,Wunderground v.1.15,2013-01-07 13:40:00,
2013-01-07 05:50:00,43.0,40.3,30.22,NW,316,1.0,3.0,90,0.00,,,0.00,0,Wunderground v.1.15,2013-01-07 13:50:00,
2013-01-07 06:00:00,43.2,40.2,30.22,NW,317,3.0,4.0,89,0.00,,,0.00,0,Wunderground v.1.15,2013-01-07 14:00:00,
2013-01-07 06:10:00,43.5,40.2,30.22,NNW,348,4.0,4.0,88,0.00,,,0.00,0,Wunderground v.1.15,2013-01-07 14:10:00,
2013-01-07 06:20:00,43.5,40.2,30.22,NW,306,5.0,5.0,88,0.00,,,0.00,0,Wunderground v.1.15,2013-01-07 14:20:00,
2013-01-07 06:30:00,43.8,40.2,30.22,NW,306,4.0,4.0,87,0.00,,,0.00,0,Wunderground v.1.15,2013-01-07 14:30:00,
2013-01-07 06:40:00,44.1,40.2,30.23,NW,305,3.0,3.0,86,0.00,,,0.00,0,Wunderground v.1.15,2013-01-07 14:40:00,
2013-01-07 06:50:00,44.1,39.9,30.23,WNW,302,0.0,0.0,85,0.00,,,0.00,0,Wunderground v.1.15,2013-01-07 14:50:00,
2013-01-07 07:00:00,44.0,39.8,30.23,WNW,303,0.0,0.0,85,0.00,,,0.00,0,Wunderground v.1.15,2013-01-07 15:00:00,
2013-01-07 07:11:00,43.9,40.0,30.23,WNW,302,0.0,0.0,86,0.00,,,0.00,0,Wunderground v.1.15,2013-01-07 15:11:00,
2013-01-07 07:20:00,43.9,40.0,30.24,WNW,297,0.0,0.0,86,0.00,,,0.00,9,Wunderground v.1.15,2013-01-07 15:20:00,
2013-01-07 07:30:00,44.0,40.1,30.25,WSW,248,0.0,0.0,86,0.00,,,0.00,9,Wunderground v.1.15,2013-01-07 15:30:00,
2013-01-07 07:40:00,44.1,40.2,30.25,WSW,248,0.0,0.0,86,0.00,,,0.00,16,Wunderground v.1.15,2013-01-07 15:40:00,
2013-01-07 07:50:00,44.1,40.2,30.25,WSW,248,0.0,0.0,86,0.00,,,0.00,26,Wunderground v.1.15,2013-01-07 15:50:00,
2013-01-07 08:00:00,44.1,40.2,30.25,WSW,248,0.0,0.0,86,0.00,,,0.00,40,Wunderground v.1.15,2013-01-07 16:00:00,
2013-01-07 08:11:00,44.2,40.3,30.24,SE,132,0.0,5.0,86,0.00,,,0.00,62,Wunderground v.1.15,2013-01-07 16:11:00,
2013-01-07 08:20:00,44.2,40.6,30.25,ESE,123,3.0,3.0,87,0.00,,,0.00,60,Wunderground v.1.15,2013-01-07 16:20:00,
2013-01-07 08:30:00,44.3,40.7,30.25,ESE,122,3.0,4.0,87,0.00,,,0.00,58,Wunderground v.1.15,2013-01-07 16:30:00,
2013-01-07 08:41:00,44.3,40.7,30.25,ESE,120,3.0,3.0,87,0.00,,,0.00,84,Wunderground v.1.15,2013-01-07 16:41:00,
2013-01-07 08:50:00,44.5,41.2,30.25,ESE,105,4.0,4.0,88,0.00,,,0.00,90,Wunderground v.1.15,2013-01-07 16:50:00,
2013-01-07 09:00:00,44.7,41.7,30.25,East,101,3.0,3.0,89,0.00,,,0.00,97,Wunderground v.1.15,2013-01-07 17:00:00,
2013-01-07 09:10:00,44.8,41.8,30.26,East,101,0.0,0.0,89,0.00,,,0.00,135,Wunderground v.1.15,2013-01-07 17:10:00,
2013-01-07 09:21:00,45.0,42.0,30.27,East,90,3.0,3.0,89,0.00,,,0.00,151,Wunderground v.1.15,2013-01-07 17:21:00,
2013-01-07 09:30:00,45.3,42.0,30.27,East,90,0.0,0.0,88,0.00,,,0.00,167,Wunderground v.1.15,2013-01-07 17:30:00,
2013-01-07 09:40:00,45.7,42.3,30.27,East,90,1.0,1.0,88,0.00,,,0.00,153,Wunderground v.1.15,2013-01-07 17:40:00,
2013-01-07 09:50:00,46.1,42.7,30.27,East,90,0.0,0.0,88,0.00,,,0.00,163,Wunderground v.1.15,2013-01-07 17:50:00,
2013-01-07 10:00:00,46.3,42.3,30.28,East,92,0.0,2.0,86,0.00,,,0.00,188,Wunderground v.1.15,2013-01-07 18:00:00,
2013-01-07 10:10:00,46.5,42.8,30.28,East,92,1.0,1.0,87,0.00,,,0.00,308,Wunderground v.1.15,2013-01-07 18:10:00,
2013-01-07 10:20:00,46.8,42.8,30.28,East,92,0.0,0.0,86,0.00,,,0.00,388,Wunderground v.1.15,2013-01-07 18:20:00,
2013-01-07 10:30:00,47.6,43.6,30.28,East,92,0.0,0.0,86,0.00,,,0.00,397,Wunderground v.1.15,2013-01-07 18:30:00,
2013-01-07 10:40:00,48.3,43.7,30.28,East,92,0.0,0.0,84,0.00,,,0.00,223,Wunderground v.1.15,2013-01-07 18:40:00,
2013-01-07 10:50:00,48.5,43.3,30.28,East,92,0.0,0.0,82,0.00,,,0.00,220,Wunderground v.1.15,2013-01-07 18:50:00,
2013-01-07 11:00:00,48.4,42.8,30.28,East,97,2.0,2.0,81,0.00,,,0.00,380,Wunderground v.1.15,2013-01-07 19:00:00,
2013-01-07 11:10:00,48.7,44.1,30.27,East,96,0.0,0.0,84,0.00,,,0.00,452,Wunderground v.1.15,2013-01-07 19:10:00,
2013-01-07 11:20:00,49.4,44.5,30.26,East,97,0.0,0.0,83,0.00,,,0.00,390,Wunderground v.1.15,2013-01-07 19:20:00,
2013-01-07 11:30:00,50.0,43.4,30.25,East,97,0.0,0.0,78,0.00,,,0.00,459,Wunderground v.1.15,2013-01-07 19:30:00,
2013-01-07 11:40:00,50.6,43.0,30.24,East,97,0.0,0.0,75,0.00,,,0.00,448,Wunderground v.1.15,2013-01-07 19:40:00,
2013-01-07 11:50:00,50.4,42.1,30.24,East,96,0.0,0.0,73,0.00,,,0.00,445,Wunderground v.1.15,2013-01-07 19:50:00,
2013-01-07 12:00:00,50.7,43.4,30.24,ESE,105,1.0,1.0,76,0.00,,,0.00,475,Wunderground v.1.15,2013-01-07 20:00:00,
2013-01-07 12:10:00,50.3,43.0,30.24,WSW,247,2.0,2.0,76,0.00,,,0.00,475,Wunderground v.1.15,2013-01-07 20:10:00,
2013-01-07 12:20:00,50.0,43.1,30.23,WSW,251,3.0,3.0,77,0.00,,,0.00,478,Wunderground v.1.15,2013-01-07 20:20:00,
2013-01-07 12:30:00,49.8,42.2,30.23,WSW,251,3.0,3.0,75,0.00,,,0.00,432,Wunderground v.1.15,2013-01-07 20:30:00,
2013-01-07 12:35:00,49.7,42.4,30.23,WSW,251,3.0,3.0,76,0.00,,,0.00,462,Wunderground v.1.15,2013-01-07 20:35:00,
2013-01-07 12:40:00,49.7,42.8,30.23,WSW,241,3.0,6.0,77,0.00,,,0.00,455,Wunderground v.1.15,2013-01-07 20:40:00,
2013-01-07 12:50:00,49.9,43.3,30.23,WSW,240,4.0,6.0,78,0.00,,,0.00,432,Wunderground v.1.15,2013-01-07 20:50:00,
2013-01-07 13:01:00,50.2,43.3,30.23,WSW,244,3.0,7.0,77,0.00,,,0.00,360,Wunderground v.1.15,2013-01-07 21:01:00,
2013-01-07 13:10:00,50.4,43.5,30.23,WSW,252,1.0,1.0,77,0.00,,,0.00,373,Wunderground v.1.15,2013-01-07 21:10:00,
2013-01-07 13:20:00,50.7,43.4,30.22,WSW,246,3.0,3.0,76,0.00,,,0.00,366,Wunderground v.1.15,2013-01-07 21:20:00,
2013-01-07 13:31:00,51.1,43.4,30.22,WSW,246,0.0,0.0,75,0.00,,,0.00,353,Wunderground v.1.15,2013-01-07 21:31:00,
2013-01-07 13:40:00,51.7,44.0,30.21,WSW,246,0.0,0.0,75,0.00,,,0.00,352,Wunderground v.1.15,2013-01-07 21:40:00,
2013-01-07 13:50:00,52.7,44.6,30.20,WSW,246,0.0,0.0,74,0.00,,,0.00,371,Wunderground v.1.15,2013-01-07 21:50:00,
2013-01-07 14:00:00,53.5,45.1,30.21,WSW,246,0.0,0.0,73,0.00,,,0.00,425,Wunderground v.1.15,2013-01-07 22:00:00,
2013-01-07 14:11:00,53.9,45.4,30.20,WSW,246,0.0,0.0,73,0.00,,,0.00,339,Wunderground v.1.15,2013-01-07 22:11:00,
2013-01-07 14:20:00,54.6,46.1,30.21,WSW,246,0.0,0.0,73,0.00,,,0.00,267,Wunderground v.1.15,2013-01-07 22:20:00,
2013-01-07 14:30:00,54.8,46.3,30.20,WSW,246,0.0,0.0,73,0.00,,,0.00,392,Wunderground v.1.15,2013-01-07 22:30:00,
2013-01-07 14:40:00,55.4,46.2,30.21,SW,224,0.0,5.0,71,0.00,,,0.00,306,Wunderground v.1.15,2013-01-07 22:40:00,
2013-01-07 14:51:00,54.7,45.1,30.20,WSW,237,2.0,4.0,70,0.00,,,0.00,250,Wunderground v.1.15,2013-01-07 22:51:00,
2013-01-07 15:00:00,54.0,44.8,30.21,SW,226,2.0,2.0,71,0.00,,,0.00,271,Wunderground v.1.15,2013-01-07 23:00:00,
2013-01-07 15:10:00,54.1,45.6,30.20,SW,224,0.0,0.0,73,0.00,,,0.00,232,Wunderground v.1.15,2013-01-07 23:10:00,
2013-01-07 15:20:00,53.9,45.4,30.20,SW,220,0.0,0.0,73,0.00,,,0.00,178,Wunderground v.1.15,2013-01-07 23:20:00,
2013-01-07 15:30:00,53.3,45.2,30.20,SW,220,0.0,0.0,74,0.00,,,0.00,139,Wunderground v.1.15,2013-01-07 23:30:00,
2013-01-07 15:40:00,53.1,45.4,30.20,SW,220,0.0,0.0,75,0.00,,,0.00,132,Wunderground v.1.15,2013-01-07 23:40:00,
2013-01-07 15:50:00,53.0,45.3,30.20,SW,219,0.0,0.0,75,0.00,,,0.00,102,Wunderground v.1.15,2013-01-07 23:50:00,
2013-01-07 16:00:00,52.5,44.8,30.20,SW,217,0.0,0.0,75,0.00,,,0.00,90,Wunderground v.1.15,2013-01-08 00:00:00,
2013-01-07 16:10:00,52.3,45.0,30.19,SW,217,0.0,0.0,76,0.00,,,0.00,69,Wunderground v.1.15,2013-01-08 00:10:00,
2013-01-07 16:20:00,52.1,44.8,30.20,SW,217,0.0,0.0,76,0.00,,,0.00,49,Wunderground v.1.15,2013-01-08 00:20:00,
2013-01-07 16:30:00,51.7,45.1,30.20,SW,217,0.0,0.0,78,0.00,,,0.00,33,Wunderground v.1.15,2013-01-08 00:30:00,
2013-01-07 16:40:00,51.4,44.8,30.20,SW,216,0.0,0.0,78,0.00,,,0.00,23,Wunderground v.1.15,2013-01-08 00:40:00,
2013-01-07 16:51:00,51.2,44.9,30.19,SW,216,0.0,0.0,79,0.00,,,0.00,16,Wunderground v.1.15,2013-01-08 00:51:00,
2013-01-07 17:00:00,51.1,44.5,30.20,SW,217,0.0,0.0,78,0.00,,,0.00,9,Wunderground v.1.15,2013-01-08 01:00:00,
2013-01-07 17:10:00,51.1,44.8,30.20,SW,217,0.0,0.0,79,0.00,,,0.00,0,Wunderground v.1.15,2013-01-08 01:10:00,
2013-01-07 17:20:00,50.9,45.3,30.20,SW,217,0.0,0.0,81,0.00,,,0.00,0,Wunderground v.1.15,2013-01-08 01:20:00,
2013-01-07 17:31:00,50.7,45.4,30.20,SW,217,0.0,0.0,82,0.00,,,0.00,0,Wunderground v.1.15,2013-01-08 01:31:00,
2013-01-07 17:40:00,50.4,45.1,30.20,SW,217,0.0,0.0,82,0.00,,,0.00,0,Wunderground v.1.15,2013-01-08 01:40:00,
2013-01-07 17:50:00,50.3,45.0,30.20,SW,217,0.0,0.0,82,0.00,,,0.00,0,Wunderground v.1.15,2013-01-08 01:50:00,
2013-01-07 18:00:00,50.3,45.0,30.20,SW,217,0.0,0.0,82,0.00,,,0.00,0,Wunderground v.1.15,2013-01-08 02:00:00,
2013-01-07 18:10:00,50.3,45.0,30.19,SW,216,0.0,0.0,82,0.00,,,0.00,0,Wunderground v.1.15,2013-01-08 02:10:00,
2013-01-07 18:20:00,50.3,45.0,30.19,SW,217,0.0,0.0,82,0.00,,,0.00,0,Wunderground v.1.15,2013-01-08 02:20:00,
2013-01-07 18:31:00,50.3,45.0,30.19,SW,217,0.0,0.0,82,0.00,,,0.00,0,Wunderground v.1.15,2013-01-08 02:31:00,
2013-01-07 18:40:00,50.3,45.0,30.18,SW,217,0.0,0.0,82,0.00,,,0.00,0,Wunderground v.1.15,2013-01-08 02:40:00,
2013-01-07 18:50:00,50.5,44.9,30.18,SW,217,0.0,0.0,81,0.00,,,0.00,0,Wunderground v.1.15,2013-01-08 02:50:00,
2013-01-07 19:00:00,50.7,45.1,30.18,SW,217,0.0,0.0,81,0.00,,,0.00,0,Wunderground v.1.15,2013-01-08 03:00:00,
2013-01-07 19:10:00,50.9,45.3,30.19,SW,217,0.0,0.0,81,0.00,,,0.00,0,Wunderground v.1.15,2013-01-08 03:10:00,
2013-01-07 19:20:00,51.1,45.1,30.19,SW,217,0.0,0.0,80,0.00,,,0.00,0,Wunderground v.1.15,2013-01-08 03:20:00,
2013-01-07 19:30:00,51.2,45.2,30.19,SW,217,0.0,0.0,80,0.00,,,0.00,0,Wunderground v.1.15,2013-01-08 03:30:00,
2013-01-07 19:40:00,51.2,45.2,30.19,SW,217,0.0,0.0,80,0.00,,,0.00,0,Wunderground v.1.15,2013-01-08 03:40:00,
2013-01-07 19:50:00,51.1,45.1,30.20,SW,217,0.0,0.0,80,0.00,,,0.00,0,Wunderground v.1.15,2013-01-08 03:50:00,
2013-01-07 20:01:00,51.0,45.0,30.20,SW,217,0.0,0.0,80,0.00,,,0.00,0,Wunderground v.1.15,2013-01-08 04:01:00,
2013-01-07 20:10:00,50.7,44.8,30.19,SW,216,0.0,0.0,80,0.00,,,0.00,0,Wunderground v.1.15,2013-01-08 04:10:00,
2013-01-07 20:20:00,50.5,44.9,30.19,SW,217,2.0,3.0,81,0.00,,,0.00,0,Wunderground v.1.15,2013-01-08 04:20:00,
2013-01-07 20:31:00,50.5,44.9,30.19,WNW,292,4.0,5.0,81,0.00,,,0.00,0,Wunderground v.1.15,2013-01-08 04:31:00,
2013-01-07 20:40:00,50.6,45.0,30.19,NW,305,4.0,4.0,81,0.00,,,0.00,0,Wunderground v.1.15,2013-01-08 04:40:00,
2013-01-07 20:51:00,50.7,44.8,30.20,NW,305,4.0,4.0,80,0.00,,,0.00,0,Wunderground v.1.15,2013-01-08 04:51:00,
2013-01-07 21:00:00,50.7,44.8,30.20,NW,305,3.0,3.0,80,0.00,,,0.00,0,Wunderground v.1.15,2013-01-08 05:00:00,
2013-01-07 21:05:00,50.7,44.8,30.20,NW,305,2.0,3.0,80,0.00,,,0.00,0,Wunderground v.1.15,2013-01-08 05:05:00,
2013-01-07 21:10:00,50.6,44.3,30.20,NW,305,1.0,1.0,79,0.00,,,0.00,0,Wunderground v.1.15,2013-01-08 05:10:00,
2013-01-07 21:21:00,50.4,44.5,30.20,NW,305,0.0,2.0,80,0.00,,,0.00,0,Wunderground v.1.15,2013-01-08 05:21:00,
2013-01-07 21:30:00,50.2,44.3,30.20,NW,305,2.0,3.0,80,0.00,,,0.00,0,Wunderground v.1.15,2013-01-08 05:30:00,
2013-01-07 21:40:00,50.3,44.7,30.20,NW,305,4.0,4.0,81,0.00,,,0.00,0,Wunderground v.1.15,2013-01-08 05:40:00,
2013-01-07 21:45:00,50.4,44.5,30.20,NW,304,4.0,4.0,80,0.00,,,0.00,0,Wunderground v.1.15,2013-01-08 05:45:00,
2013-01-07 21:50:00,50.6,44.7,30.20,NW,305,4.0,4.0,80,0.00,,,0.00,0,Wunderground v.1.15,2013-01-08 05:50:00,
2013-01-07 22:00:00,51.0,44.7,30.19,NW,305,4.0,4.0,79,0.00,,,0.00,0,Wunderground v.1.15,2013-01-08 06:00:00,